Погода в Рыбинске

Погода в Рыбинске : погода сейчас, прогноз погоды и архив. Всё, что Вы хотите узнать о погоде в Рыбинске!

Хотите узнать прогноз погоды в Рыбинске? Тогда Вам сюда: Погода в Рыбинске

Поиск расширенной информации на нашем сайте:

Другие новости

Новости СМИ2

Главная страница сайта

Новости сайта

03.07.2017

Напоминаем, что на нашем специализированном сайте Метеоцентр.Азия вы можете получить высокодетализированные автоматические прогнозы погоды по пунктам России, СНГ и мира в авиационном формате (включающие направление и скорость ветра, видимость, явления погоды, количество и форму облачности, нижнюю и верхнюю границу облачности).


Погода в Рыбинске - сегодня

Время (UTC), дата Ветер
(°,м/с) 
Видим.   Явления Облачность Т
(°С)
Тd
(°С)
f(%) Тe
(°С)
Pmin
(гПа)
dP
(гПа)
Po
(мм)
O2
(г/м3)
Тmin Tmax R s Состояние
почвы
12 15.06.18 350 (С) 22000 м    4/3 600 м верхняя 
[Cu hum|Ci fib]
+20.9 +5.3 36 +21  1019.7  -0.1  755  282           
18 15.06.18 тихо ()   10 км    6/6 2000 м средняя, верхняя 
[Ac trans|Ci fib]
+15.4 +7.4 59 +15  1019.3  -0.2  755  287           
21 15.06.18 тихо ()   10 км    ясно 
+9.9 +6.4 79 +10  1020.2  0.6  755  293           
00 16.06.18 140 (ЮВ) 10 км    3/0 средняя 
[Ac trans]
+8.4 +5.7 83 +9  1021.2  0.9  756  295           
03 16.06.18 200 (Ю) 14000 м    4/4 600 м 
[Cu med, cong]
+11.8 +6.3 69 +13  1021.8  0.9  757  291  +7.4        влажная 
06 16.06.18 тихо ()   14000 м    8/8 300 м 
[Sc]
+17.5 +9.1 58 +18  1022.2  0.6  757  285           
09 16.06.18 330 (СЗ) 15000 м    3/3 600 м 
[Cu med, cong]
+21.3 +8.2 43 +21  1021.8  -0.2  757  282           
12 16.06.18 010 (С) 15000 м    ясно 
+23.1 +5.5 32 +23  1021  -0.7  757  280           
18 16.06.18 тихо ()   10 км    4/3 600 м верхняя 
[Sc|Ci fib]
+17.1 +9.4 60 +17  1020.1  -0.4  756  285           
21 16.06.18 тихо ()   10 км    4/3 600 м верхняя 
[Sc|Ci fib]
+12.2 +9.2 82 +12  1020.7  0.4  756  290           
00 17.06.18 тихо ()   10 км    8/8 2000 м средняя 
[As trans]
+10.7 +8.8 88 +11  1021.1  0.3  756  292           
03 17.06.18 210 (ЮЗ) 12000 м    10/10 2000 м 
[Ns]
+14.2 +10.4 78 +17  1021.3  0.4  757  288  +10.5        влажная 
06 17.06.18 320 (СЗ) 18000 м    8/0 верхняя 
[Ci sp]
+22.3 +13.4 57 +28  1020.8  -0.2  756  279           
09 17.06.18 290 (З) 20000 м    8/3 300 м верхняя 
[Cu med, cong|Ci sp]
+24.4 +8.4 36 +24  1020.4  -0.3  756  278           
12 17.06.18 330 (СЗ) 23000 м    8/3 300 м верхняя 
[Cu med, cong|Ci fib]
+25.1 +7.7 33 +25  1019.4  -0.9  755  278           
18 17.06.18 тихо ()   10 км    6/0 верхняя 
[Ci sp]
+19.5 +14.4 72 +27  1018.5  -0.3  755  281           
21 17.06.18 тихо ()   10 км    3/0 верхняя 
[Ci fib]
+14.3 +12.9 91 +19  1018.4  -0.3  754  286           
00 18.06.18 тихо ()   10 км    ясно 
+12.5 +11.5 94 +16  1018.8  0.3  755  289           
03 18.06.18 тихо ()   13000 м    3/0 верхняя 
[Ci fib]
+19.8 +14.6 72 +28  1017.9  -0.5  754  280  +11.8        влажная 
06 18.06.18 350 (С) 15000 м    ясно 
+22.9 +13.9 57 +30  1017.3  -0.4  754  277           
09 18.06.18 010 (С) 20000 м    1/1 600 м 
[Cu med, cong]
+26.1 +13.6 46 +32  1016.4  -0.7  753  274           
12 18.06.18 360 (С) 22000 м    3/3 600 м 
[Cu med, cong]
+27 +12.2 40 +31  1015.3  -1.1  752  274           
18 18.06.18 тихо ()   10 км    3/0 верхняя 
[Ci sp]
+20.6 +14.3 67 +28  1013.5  -0.5  751  278           
21 18.06.18 тихо ()   10 км    3/0 верхняя 
[Ci sp]
+14.6 +12.6 88 +19  1013.4  -0.4  751  285           
00 19.06.18 тихо ()   10 км    8/8 300 м 
[Sc]
+13.1 +11.7 91 +17  1013.1  -0.5  750  286           
Время (UTC), дата Ветер
(°,м/с) 
Видим.   Явления Облачность Т
(°С)
Тd
(°С)
f(%) Тe
(°С)
Pmin
(гПа)
dP
(гПа)
Po
(мм)
O2
(г/м3)
Тmin Tmax R s Состояние
почвы

Для получения пояснительной информации подведите курсор к названию столбца.

ПОГОДА в Рыбинске - архив

Всё, что Вы хотите узнать о погоде в Рыбинске - удобно и подробно!

Выберите нужную дату (начиная с 1 января 2015* года) и нажмите кнопку "Найти".
Будут отображены архивные сводки погоды по пункту Рыбинск, начиная с указанной даты.


Отображать данные в формате CSV (для использования в таблицах Excel)


Внимание! Наш архив погоды предназначен исключительно для личного некоммерческого использования в познавательных целях. Если Вам необходимы официальные справки о состоянии погоды (для производственных, юридических, коммерческих и т.п. целей), обращайтесь в органы Росгидромета.

*Примечание: данная дата относится к архиву по метеостанциям СССР (Россия, СНГ, Балтия).
Архив по метеостанциям Зарубежной Европы и Азии (кроме Китая) хранится 10 дней, по другим регионам земного шара (Китай, Африка, Америка, Австралия, Океания) - 1 день.

Рыбинск - район местоположения метеостанции


Название, широта, долгота, высота метеостанции:
Рыбинск 58.1°ш. 38.7°д. 105 м над ур. моря [Российская Федерация]

Дополнительная информация

В oтличие oт бoльшинства пoгoдных сайтoв мы публикуем пoдрoбную метеoинфoрмацию в детальнoм прoфессиoнальнoм фoрмате.

Характеристики температуры и влажнoсти вoздуха измеряются на высoте 2 м в тени вдали oт зданий и деревьев.
Скoрoсть ветра измеряется на высoте 10 м (на урoвне рoста челoвека скoрoсть ветра ниже в 1.5-2 раза). Если метеoстанция нахoдится в гoрoде или в лесу, тo скoрoсть ветра занижена на 2-4 м/с пo сравнению с oткрытым местoм. Скoрoсть ветра над акватoриями крупных рек и oзёр, а также на вершинах хoлмoв на 2-5 м/с выше, чем в oбычных услoвиях.
Атмoсфернoе давление в разных тoчках местнoсти мoжет значительнo oтличаться oт давления на метеoстанции, в зависимoсти oт услoвий рельефа (при пoдъёме на 10 м давление пoнижается примернo на 1 мм рт.ст.).